Location: Copeville
(33.0796°N, 96.4155°W)
Time: 01:26:01
(UTC+00:00)

Nadezhda 4 Rocket - Pass Details

Date: 07 July 2022
Orbit: 949 x 992 km, 82.9° (Epoch: 07 August)

Event Time Altitude Azimuth Distance (km) Brightness Sun altitude
Rises 10:40:41 0° 163° (SSE) 3,645 6.8 -8.5°
Reaches altitude 10° 10:43:22 10° 155° (SSE) 2,695 6.2 -8.0°
Maximum altitude 10:48:58 38° 89° (E) 1,423 5.5 -7.0°
Drops below altitude 10° 10:54:33 10° 24° (NNE) 2,686 7.3 -6.1°
Sets 10:57:12 0° 16° (NNE) 3,631 7.8 -5.6°
